TimeEST,TemperatureF,Dew PointF,Humidity,Sea Level PressureIn,VisibilityMPH,Wind Direction,Wind SpeedMPH,Gust SpeedMPH,PrecipitationIn,Events,Conditions,WindDirDegrees,DateUTC
12:55 AM,17.1,10.9,77,30.14,10.0,Calm,Calm,-,N/A,,Clear,0,2013-03-04 05:55:00
1:55 AM,12.9,9.0,84,30.14,10.0,Calm,Calm,-,N/A,,Clear,0,2013-03-04 06:55:00
2:55 AM,10.9,7.0,84,30.14,10.0,Calm,Calm,-,N/A,,Clear,0,2013-03-04 07:55:00
3:55 AM,10.9,5.0,77,30.15,10.0,Calm,Calm,-,N/A,,Clear,0,2013-03-04 08:55:00
4:55 AM,10.9,5.0,77,30.16,10.0,Calm,Calm,-,N/A,,Clear,0,2013-03-04 09:55:00
5:55 AM,10.0,3.9,76,30.18,10.0,Calm,Calm,-,N/A,,Clear,0,2013-03-04 10:55:00
6:55 AM,9.0,3.0,77,30.19,10.0,Calm,Calm,-,N/A,,Clear,0,2013-03-04 11:55:00
7:55 AM,10.9,6.1,81,30.19,10.0,Calm,Calm,-,N/A,,Clear,0,2013-03-04 12:55:00
8:55 AM,17.1,10.0,74,30.19,10.0,ENE,4.6,-,N/A,,Clear,70,2013-03-04 13:55:00
9:55 AM,21.0,12.9,71,30.19,10.0,Calm,Calm,-,N/A,,Clear,0,2013-03-04 14:55:00
10:55 AM,24.1,14.0,65,30.18,10.0,ENE,6.9,-,N/A,,Clear,70,2013-03-04 15:55:00
11:55 AM,27.0,15.1,61,30.18,10.0,Variable,4.6,-,N/A,,Clear,0,2013-03-04 16:55:00
12:55 PM,28.9,15.1,56,30.16,10.0,NE,4.6,-,N/A,,Clear,40,2013-03-04 17:55:00
1:55 PM,30.9,12.0,46,30.14,10.0,Calm,Calm,-,N/A,,Clear,0,2013-03-04 18:55:00
2:55 PM,30.9,12.0,46,30.12,10.0,East,10.4,-,N/A,,Clear,90,2013-03-04 19:55:00
3:55 PM,32.0,12.9,45,30.11,10.0,East,5.8,-,N/A,,Clear,90,2013-03-04 20:55:00
4:55 PM,32.0,12.0,44,30.11,10.0,SE,6.9,-,N/A,,Clear,130,2013-03-04 21:55:00
5:55 PM,33.1,9.0,37,30.10,10.0,ENE,4.6,-,N/A,,Clear,70,2013-03-04 22:55:00
6:55 PM,30.0,9.0,41,30.10,10.0,Calm,Calm,-,N/A,,Clear,0,2013-03-04 23:55:00
7:55 PM,28.9,10.0,45,30.11,10.0,Calm,Calm,-,N/A,,Clear,0,2013-03-05 00:55:00
8:55 PM,25.0,10.9,55,30.12,10.0,Calm,Calm,-,N/A,,Clear,0,2013-03-05 01:55:00
9:55 PM,25.0,12.0,58,30.12,10.0,Calm,Calm,-,N/A,,Clear,0,2013-03-05 02:55:00
10:55 PM,25.0,10.9,55,30.13,10.0,East,3.5,-,N/A,,Clear,100,2013-03-05 03:55:00
11:55 PM,23.0,12.0,63,30.13,10.0,Calm,Calm,-,N/A,,Clear,0,2013-03-05 04:55:00